Location: Unspecified
(41.1850°N, 73.2650°W)
Time: 09:27:46
(UTC+00:00)

BlueWalker 3 - Pass Details

Date: 22 February 2026
Orbit: 451 x 458 km, 53.2° (Epoch: 6 March)

Event Time Altitude Azimuth Distance (km) Brightness Sun altitude
Rises 11:03:16 0° 218° (SW) 2,462 5.1 -7.2°
Reaches altitude 10° 11:05:25 10° 213° (SSW) 1,591 4.2 -6.8°
Maximum altitude 11:08:54 52° 137° (SE) 576 2.6 -6.2°
Drops below altitude 10° 11:12:24 10° 60° (ENE) 1,596 5.4 -5.5°
Sets 11:14:35 0° 55° (NE) 2,472 6.2 -5.1°
